[ hide orbit diagram ]
For accurate long-term ephemerides, please instead use our Horizons system.This orbit viewer was implemented using two-body methods, and hence should not be used for determining accurate long-term trajectories (over several years or decades) or planetary encounter circumstances.
Orbital Elements at Epoch 2459000.5 (2020-May-31.0) TDB
Reference: JPL 10 (heliocentric ecliptic J2000)
Element | Value | Uncertainty (1-sigma) | Units |
e | .1237580715917735 | 5.8949e-08 | |
a | 2.215392459665705 | 1.612e-08 | au |
q | 1.941219761038521 | 1.3807e-07 | au |
i | 1.781148963784135 | 6.1639e-06 | deg |
node | 328.8545978576362 | 0.00020166 | deg |
peri | 120.9658935272053 | 0.0002063 | deg |
M | 5.237432640452415 | 3.8995e-05 | deg |
tp | 2458982.977729261220 (2020-May-13.47772926) | 0.00013038 | TDB |
period | 1204.410232838059 3.30 | 1.3145e-05 3.599e-08 | d yr |
n | .2989014790680581 | 3.2623e-09 | deg/d |
Q | 2.489565158292888 | 1.8115e-08 | au |
|
| | Orbit Determination Parameters
Additional Information
|
[ show covariance matrix ]
Physical Parameter Table
Parameter |
Symbol |
Value |
Units |
Sigma |
Reference |
Notes |
absolute magnitude |
H |
18.2 |
|
n/a |
MPO418479 |
|
|
277998 (2006 UE85) Discovered 2004-Jan-13 by Spacewatch at Kitt Peak |
Reference: 20110517/Numbers.arc | Last Updated: 2011-05-20 |
|
|